Tracking 22283 objects as of 28-Jan-2021
HD Live streaming from Space Station
objects crossing your sky now

TIROS 4

Track TIROS 4 now!
10-day predictions
TIROS 4 is classified as:


NORAD ID: 226
Int'l Code: 1962-002A
Perigee: 691.5 km
Apogee: 802.2 km
Inclination: 48.3 °
Period: 99.6 minutes
Semi major axis: 7117 km
RCS: 0.8251 m2 (medium)
Launch date: February 8, 1962
Source: United States (US)
Launch site: AIR FORCE EASTERN TEST RANGE (AFETR)
aabbcc
Your satellite tracking list
Your tracking list is empty




NASA's NSSDC Master Catalog

Two Line Element Set (TLE):
1 00226U 62002A   21027.91603879 -.00000094  00000-0  21946-4 0  9995
2 00226  48.2951 258.8076 0077789  79.6029 281.3626 14.45696455 83848
Source of the keplerian elements: AFSPC